Regional Weather Roundup
Issued by NWS

Home | Current Version | Previous Version | Graphics & Text | Print | Product List | Glossary On
Versions: 1 2 3 4 5 6 7 8 9 10 11 12 13 14 15 16 17 18 19 20 21 22 23 24 25 26 27 28 29 30 31 32 33 34 35 36 37 38 39 40 41 42 43 44 45 46 47 48 49 50
000
ASUS45 KPSR 231910
RWRAZ

ARIZONA REGIONAL HOURLY WEATHER ROUNDUP
NATIONAL WEATHER SERVICE PHOENIX AZ
1200 PM MST TUE SEP 23 2014

NOTE: FAIR INDICATES FEW OR NO CLOUDS BELOW 12,000 FEET WITH NO
SIGNIFICANT WEATHER AND/OR OBSTRUCTIONS TO VISIBILITY.

AZZ001>003-036-232000-
NORTHWEST ARIZONA

CITY           SKY/WX    TMP DP  RH WIND       PRES   REMARKS
BULLHEAD CITY  SUNNY     93  37  14 S5        29.96F
KINGMAN        SUNNY     86  30  13 W5        30.12F
$$

AZZ004>008-015-016-018-232000-
NORTH CENTRAL ARIZONA

CITY           SKY/WX    TMP DP  RH WIND       PRES   REMARKS
GRAND CANYON   SUNNY     73  32  22 SW8       30.33F
PRESCOTT       SUNNY     80  39  23 VRB3      30.22F
FLAGSTAFF      SUNNY     71  42  35 VRB5      30.35F
PAYSON         SUNNY     79  52  38 VRB5      30.25F
PAGE           SUNNY     84  39  20 E5        30.17F
$$

AZZ009>014-017-232000-
NORTHEAST ARIZONA

CITY           SKY/WX    TMP DP  RH WIND       PRES   REMARKS
WINSLOW        SUNNY     83  48  29 CALM      30.20F
SAINT JOHNS    MOSUNNY   79  54  41 NW9       30.25F
WINDOW ROCK    SUNNY     76  38  25 NW5       30.32F
SHOW LOW       MOSUNNY   75  45  33 SW6       30.33F
$$

AZZ023-232000-
GREATER PHOENIX AREA

CITY           SKY/WX    TMP DP  RH WIND       PRES   REMARKS
PHOENIX        MOSUNNY   94  55  26 CALM      29.93F
BUCKEYE          N/A     93  48  21 S5        29.95F
GLENDALE       MOSUNNY   93  52  24 E3        29.96F
LUKE AFB       SUNNY     95  52  23 CALM      29.94F
DEER VALLEY    SUNNY     94  47  20 S7        29.96F
SCOTTSDALE     SUNNY     94  57  28 S6        29.97F
MESA-FALCON    MOSUNNY   93  57  29 SW8       29.95
MESA-GATEWAY   MOSUNNY   95  57  28 CALM      29.98F
CHANDLER       MOSUNNY   95  61  31 SW5       29.95F
$$

AZZ027-028-232000-
SOUTHWEST MARICOPA COUNTY AND PINAL COUNTY

CITY           SKY/WX    TMP DP  RH WIND       PRES   REMARKS
CASA GRANDE    SUNNY     93  61  33 NE6       29.97F
GILA BEND      CLEAR     97  43  15 VRB6      29.94F
$$

AZZ503-504-507>509-232000-
SOUTHEAST ARIZONA

CITY           SKY/WX    TMP DP  RH WIND       PRES   REMARKS
TUCSON         SUNNY     92  62  36 VRB5      30.04F
DAVIS-MONTHAN  SUNNY     90  62  39 W6        30.02F
RYAN FIELD       N/A     93  63  36 E5        30.03F
NOGALES        SUNNY     89  62  40 N6        30.10F
SIERRA VISTA   MOSUNNY   81  63  54 E7        30.19F
DOUGLAS        MOSUNNY   82  62  50 E10       30.16F
SAFFORD        SUNNY     85  63  47 SE9G17    30.09F
$$

AZZ020-021-025-026-031-232000-
SOUTHWEST ARIZONA

CITY           SKY/WX    TMP DP  RH WIND       PRES   REMARKS
YUMA           SUNNY    101  51  18 CALM      29.88F
$$

CAZ031-033-041-043-047-048-061-232000-
SOUTHERN CALIFORNIA

CITY           SKY/WX    TMP DP  RH WIND       PRES   REMARKS
DOWNTOWN L.A.  SUNNY     83  63  50 CALM      29.95F
L.A. AIRPORT   MOSUNNY   72  63  73 W10       29.98F
SAN DIEGO      MOSUNNY   74  63  68 NW13      29.97F
BURBANK        SUNNY     84  53  34 VRB6      29.97F
ONTARIO        SUNNY     87  55  33 CALM      29.97F
RIVERSIDE      SUNNY     86  53  32 CALM      29.97F
PALM SPRINGS   SUNNY    101  38  11 SE7       29.91F
EL CENTRO NAS  MOSUNNY   97  58  27 SE6       29.87F
IMPERIAL       SUNNY     96  60  30 SE5       29.87F
BLYTHE         SUNNY     98  54  22 SE7       29.91F
NEEDLES        SUNNY     96  42  15 E6        29.95F
$$

NVZ020-UTZ003-232000-
SOUTHERN NEVADA-UTAH

CITY           SKY/WX    TMP DP  RH WIND       PRES   REMARKS
LAS VEGAS      SUNNY     89  37  16 S5        30.00F
SALT LAKE CITY MOSUNNY   79  49  34 VRB6      30.15F
$$

NMZ009-TXZ055-232000-
NEW MEXICO-WEST TEXAS

CITY           SKY/WX    TMP DP  RH WIND       PRES   REMARKS
ALBUQUERQUE    MOSUNNY   73  57  57 VRB6      30.26F
EL PASO        MOSUNNY   79  61  53 VRB3      30.17F
$$


........................KEY........................
SKY/WX - SKY CONDITION/WEATHER
TMP    - TEMPERATURE IN FAHRENHEIT
DP     - DEW POINT IN FAHRENHEIT
RH     - RELATIVE HUMIDITY IN PERCENT
WIND   - DIRECTION AND SPEED IN MILES PER HOUR (MPH)
VRB    - VARIABLE WIND DIRECTION
PRES   - MEAN SEA LEVEL PRESSURE IN INCHES OF MERCURY
         F - FALLING PRESSURE   R - RISING PRESSURE
         S - STEADY PRESSURE
VSB    - VISIBILITY IN MILES
HX     - HEAT INDEX IN FAHRENHEIT
WCI    - WIND CHILL INDEX IN FAHRENHEIT
TC     - TEMPERATURE IN CELSIUS WHICH IS ALSO KNOWN AS
         TEMPERATURE IN CENTIGRADE
AFB    - AIR FORCE BASE
         LUKE AFB IS LUKE AIR FORCE BASE
         DAVIS-MONTHAN IS DAVIS-MONTHAN AIR FORCE BASE
NAS    - NAVAL AIR STATION
         EL CENTRO NAS IS EL CENTRO NAVAL AIR STATION
N/A    - NOT AVAILABLE



USA.gov is the U.S. government's official web portal to all federal, state and local government web resources and services.